Weather History for Ironwood, MI

Change the Weather History Date:

Monday, December 3, 2012

  Actual Average Record
Temperature  
Mean Temperature 45 °F -  
Max Temperature 53 °F 30 °F 57 °F (1998)
Min Temperature 37 °F 18 °F 0 °F (2004)
Degree Days  
Heating Degree Days 20    
Moisture  
Dew Point 39 °F    
Average Humidity 79    
Maximum Humidity 93    
Minimum Humidity 57    
Precipitation  
Precipitation 0.01 in - - ()
Sea Level Pressure  
Sea Level Pressure 29.62 in    
Wind  
Wind Speed 16 mph (SSW)    
Max Wind Speed 24 mph    
Max Gust Speed 34 mph    
Visibility 8 miles    
Events      
Averages and records for this station are not official NWS values.
T = Trace of Precipitation, MM = Missing Value Source: NWS Daily Summary

Daily Weather History Graph

Daily Weather History Graph

Search for Another Location

Airport:

Trip Planner

Search our weather history database for the weather conditions in past years. The results will help you decide how hot, cold, wet, or windy it might be!

Date:

Astronomy

Dec. 03, 2012 Rise Set
Actual Time 7:26 AM CST 4:14 PM CST
Civil Twilight 6:52 AM CST 4:48 PM CST
Nautical Twilight 6:14 AM CST 5:26 PM CST
Astronomical Twilight 5:37 AM CST 6:03 PM CST
Moon 9:11 PM CST (12/3) 10:41 AM CST (12/3)
Length of Visible Light 9h 56m
Length of Day
8h 47m
Waning Gibbous, 78% of the Moon is Illuminated
Dec 3
Waning Gibbous
Dec 6
Last Quarter
Dec 13
New
Dec 19
First Quarter
Dec 28
Full

Hourly Weather History & Observations

Time (CST) Temp. Windchill Dew Point Humidity Pressure Visibility Wind Dir Wind Speed Gust Speed Precip Events Conditions
12:15 AM 37.4 °F 30.3 °F 30.2 °F 75% 29.81 in 10.0 mi SSE 10.4 mph 19.6 mph N/A   Clear
12:55 AM 37.4 °F 29.8 °F 30.2 °F 75% 29.81 in 10.0 mi SSE 11.5 mph 21.9 mph N/A   Clear
1:15 AM 37.4 °F 29.3 °F 32.0 °F 81% 29.80 in 10.0 mi SSE 12.7 mph 25.3 mph N/A   Clear
1:35 AM 37.4 °F 28.5 °F 32.0 °F 81% 29.80 in 10.0 mi SSE 15.0 mph 26.5 mph N/A   Clear
1:55 AM 37.4 °F 28.2 °F 33.8 °F 87% 29.80 in 10.0 mi South 16.1 mph 23.0 mph N/A   Clear
2:15 AM 39.2 °F 30.8 °F 33.8 °F 81% 29.79 in 10.0 mi SSE 15.0 mph 26.5 mph N/A   Clear
2:35 AM 39.2 °F 29.8 °F 33.8 °F 81% 29.78 in 10.0 mi South 18.4 mph 26.5 mph N/A   Clear
2:55 AM 39.2 °F 29.3 °F 33.8 °F 81% 29.77 in 10.0 mi SSE 20.7 mph 32.2 mph N/A   Clear
3:15 AM 39.2 °F 29.0 °F 33.8 °F 81% 29.75 in 10.0 mi South 21.9 mph 31.1 mph N/A   Clear
3:35 AM 39.2 °F 29.8 °F 33.8 °F 81% 29.75 in 9.0 mi South 18.4 mph 27.6 mph N/A   Clear
3:55 AM 39.2 °F 29.3 °F 35.6 °F 87% 29.73 in 8.0 mi South 20.7 mph 29.9 mph N/A   Clear
4:15 AM 39.2 °F 29.8 °F 35.6 °F 87% 29.73 in 8.0 mi SSE 18.4 mph 31.1 mph N/A   Clear
4:35 AM 41.0 °F 32.5 °F 35.6 °F 81% 29.72 in 7.0 mi South 17.3 mph 27.6 mph N/A   Partly Cloudy
4:55 AM 41.0 °F 31.6 °F 35.6 °F 81% 29.71 in 7.0 mi SSE 20.7 mph 28.8 mph N/A   Partly Cloudy
5:15 AM 41.0 °F 33.1 °F 35.6 °F 81% 29.70 in 7.0 mi SSE 15.0 mph 27.6 mph N/A   Partly Cloudy
5:35 AM 41.0 °F 33.1 °F 35.6 °F 81% 29.70 in 8.0 mi SSE 15.0 mph 24.2 mph N/A   Clear
5:55 AM 42.8 °F 34.5 °F 35.6 °F 76% 29.69 in 8.0 mi SSE 18.4 mph 28.8 mph N/A   Clear
6:15 AM 42.8 °F 34.0 °F 35.6 °F 76% 29.69 in 8.0 mi South 20.7 mph 27.6 mph N/A   Partly Cloudy
6:35 AM 42.8 °F 34.8 °F 37.4 °F 81% 29.69 in 8.0 mi South 17.3 mph 24.2 mph N/A   Mostly Cloudy
6:55 AM 42.8 °F 34.5 °F 37.4 °F 81% 29.67 in 7.0 mi South 18.4 mph 31.1 mph N/A   Overcast
7:15 AM 42.8 °F 34.0 °F 37.4 °F 81% 29.65 in 7.0 mi South 20.7 mph 32.2 mph N/A   Mostly Cloudy
7:35 AM 42.8 °F 34.3 °F 37.4 °F 81% 29.65 in 7.0 mi SSE 19.6 mph 28.8 mph N/A   Mostly Cloudy
7:55 AM 42.8 °F 35.8 °F 37.4 °F 81% 29.65 in 7.0 mi South 13.8 mph 26.5 mph N/A   Overcast
8:15 AM 42.8 °F 34.8 °F 37.4 °F 81% 29.64 in 6.0 mi SSE 17.3 mph 31.1 mph N/A   Overcast
8:35 AM 44.6 °F 36.9 °F 39.2 °F 81% 29.61 in 7.0 mi SSE 18.4 mph 27.6 mph N/A   Overcast
9:15 AM 44.6 °F 37.8 °F 41.0 °F 87% 29.61 in 8.0 mi SSE 15.0 mph 25.3 mph N/A   Overcast
9:35 AM 46.4 °F 39.5 °F 41.0 °F 81% 29.60 in 7.0 mi South 17.3 mph 25.3 mph N/A   Overcast
9:55 AM 46.4 °F 39.8 °F 42.8 °F 87% 29.59 in 6.0 mi South 16.1 mph 26.5 mph N/A   Overcast
10:15 AM 46.4 °F 39.8 °F 42.8 °F 87% 29.57 in 5.0 mi SSE 16.1 mph 28.8 mph N/A   Overcast
10:35 AM 46.4 °F 39.8 °F 42.8 °F 87% 29.57 in 5.0 mi South 16.1 mph 26.5 mph N/A   Overcast
10:55 AM 46.4 °F 39.0 °F 42.8 °F 87% 29.55 in 5.0 mi South 19.6 mph 33.4 mph N/A   Overcast
11:15 AM 48.2 °F - 42.8 °F 82% 29.53 in 6.0 mi SSE 19.6 mph 29.9 mph N/A   Overcast
11:35 AM 48.2 °F - 44.6 °F 87% 29.53 in 4.0 mi South 18.4 mph 26.5 mph N/A   Overcast
11:55 AM 48.2 °F - 44.6 °F 87% 29.51 in 3.0 mi SSE 17.3 mph 25.3 mph N/A   Overcast
12:15 PM 48.2 °F - 44.6 °F 87% 29.51 in 2.5 mi South 19.6 mph 27.6 mph N/A   Overcast
12:35 PM 48.2 °F - 44.6 °F 87% 29.51 in 2.5 mi South 15.0 mph 23.0 mph N/A   Overcast
12:55 PM 48.2 °F - 44.6 °F 87% 29.49 in 2.0 mi SSE 18.4 mph 24.2 mph N/A   Overcast
1:15 PM 48.2 °F - 44.6 °F 87% 29.48 in 5.0 mi SSE 12.7 mph 21.9 mph N/A   Mostly Cloudy
1:35 PM 50.0 °F - 44.6 °F 82% 29.49 in 10.0 mi South 12.7 mph 20.7 mph N/A   Overcast
1:55 PM 48.2 °F - 44.6 °F 87% 29.48 in 3.0 mi South 10.4 mph 16.1 mph N/A   Overcast
2:15 PM 48.2 °F - 46.4 °F 93% 29.48 in 6.0 mi South 10.4 mph 16.1 mph N/A   Overcast
2:35 PM 48.2 °F - 44.6 °F 87% 29.48 in 5.0 mi South 10.4 mph - N/A   Overcast
2:55 PM 50.0 °F - 46.4 °F 87% 29.46 in 10.0 mi South 12.7 mph 17.3 mph N/A   Overcast
3:15 PM 51.8 °F - 46.4 °F 82% 29.46 in 10.0 mi South 10.4 mph 17.3 mph N/A   Overcast
3:35 PM 51.8 °F - 48.2 °F 88% 29.46 in 10.0 mi South 10.4 mph 18.4 mph N/A   Overcast
3:55 PM 53.6 °F - 48.2 °F 82% 29.47 in 10.0 mi SSW 11.5 mph - N/A   Overcast
4:15 PM 53.6 °F - 48.2 °F 82% 29.48 in 5.0 mi SW 13.8 mph - N/A   Overcast
4:35 PM 53.6 °F - 48.2 °F 82% 29.50 in 7.0 mi WSW 20.7 mph 32.2 mph 0.01 in   Overcast
4:55 PM 51.8 °F - 46.4 °F 82% 29.52 in 8.0 mi West 21.9 mph 25.3 mph 0.01 in   Overcast
5:15 PM 50.0 °F - 44.6 °F 82% 29.53 in 10.0 mi WSW 16.1 mph - N/A   Overcast
5:35 PM 50.0 °F - 42.8 °F 76% 29.55 in 10.0 mi WSW 20.7 mph 25.3 mph N/A   Mostly Cloudy
5:55 PM 50.0 °F - 42.8 °F 76% 29.56 in 10.0 mi West 17.3 mph 21.9 mph N/A   Mostly Cloudy
6:15 PM 48.2 °F - 42.8 °F 82% 29.58 in 10.0 mi West 15.0 mph 24.2 mph N/A   Overcast
6:35 PM 48.2 °F - 41.0 °F 76% 29.58 in 10.0 mi West 16.1 mph - N/A   Scattered Clouds
6:55 PM 46.4 °F 40.1 °F 39.2 °F 76% 29.59 in 10.0 mi WSW 15.0 mph 21.9 mph N/A   Partly Cloudy
7:15 PM 46.4 °F 39.0 °F 39.2 °F 76% 29.60 in 10.0 mi West 19.6 mph 26.5 mph N/A   Scattered Clouds
7:35 PM 46.4 °F 39.2 °F 39.2 °F 76% 29.61 in 10.0 mi WSW 18.4 mph 27.6 mph N/A   Mostly Cloudy
7:55 PM 46.4 °F 38.7 °F 37.4 °F 71% 29.63 in 10.0 mi West 20.7 mph - N/A   Partly Cloudy
8:15 PM 44.6 °F 35.9 °F 35.6 °F 71% 29.63 in 10.0 mi West 23.0 mph 32.2 mph N/A   Clear
8:35 PM 44.6 °F 36.4 °F 33.8 °F 66% 29.65 in 10.0 mi WSW 20.7 mph 28.8 mph N/A   Clear
8:55 PM 44.6 °F 37.2 °F 33.8 °F 66% 29.65 in 10.0 mi West 17.3 mph 28.8 mph N/A   Clear
9:15 PM 42.8 °F 34.3 °F 32.0 °F 66% 29.66 in 10.0 mi WSW 19.6 mph 27.6 mph N/A   Clear
9:35 PM 42.8 °F 34.8 °F 32.0 °F 66% 29.65 in 10.0 mi West 17.3 mph 24.2 mph N/A   Clear
9:55 PM 42.8 °F 35.1 °F 32.0 °F 66% 29.65 in 10.0 mi WSW 16.1 mph 21.9 mph N/A   Clear
10:15 PM 42.8 °F 35.1 °F 30.2 °F 61% 29.66 in 10.0 mi WSW 16.1 mph 26.5 mph N/A   Clear
10:35 PM 42.8 °F 35.1 °F 30.2 °F 61% 29.66 in 10.0 mi WSW 16.1 mph 23.0 mph N/A   Clear
10:55 PM 42.8 °F 33.8 °F 30.2 °F 61% 29.66 in 10.0 mi WSW 21.9 mph 26.5 mph N/A   Clear
11:15 PM 42.8 °F 33.5 °F 28.4 °F 57% 29.66 in 10.0 mi WSW 23.0 mph 34.5 mph N/A   Clear
11:35 PM 42.8 °F 34.0 °F 28.4 °F 57% 29.67 in 10.0 mi WSW 20.7 mph 29.9 mph N/A   Clear
11:55 PM 42.8 °F 33.3 °F 28.4 °F 57% 29.67 in 10.0 mi WSW 24.2 mph 31.1 mph N/A   Clear